Tracking 31027 objects as of 19-Jul-2025
HD Live streaming from Space Station
objects crossing your sky now

FENGYUN 1C DEB

Track FENGYUN 1C DEB now!
10-day predictions


NORAD ID: 31937
Int'l Code: 1999-025CMN
Perigee: 530.8 km
Apogee: 770.6 km
Inclination: 99.3 °
Period: 97.6 minutes
Semi major axis: 7021 km
RCS: 0.0094 m2 (small)
Launch date: May 10, 1999
Source: People's Republic of China (PRC)
Launch site: Taiyaun Space Center, China (TSC)

Note: This is SATELLITE DEBRIS
Your satellite tracking list
FENGYUN 1C DEB
Track 1 satellite(s)




NASA's NSSDC Master Catalog

Two Line Element Set (TLE):
1 31937U 99025CMN 25199.43840056  .00004196  00000-0  49487-3 0  9999
2 31937  99.2667 267.4500 0170748  35.2243 326.0107 14.75495725638953
Source of the keplerian elements: AFSPC